Location: Coullemont
(50.2158°N, 2.4760°E)
Time: 12:09:45
(UTC+00:00)

Daily predictions for brighter satellites

Satellite Brightness Start Highest point End
(mag) Time Altitude Azimuth Time Altitude Azimuth Time Altitude Azimuth
Cosmos 2344 4.4 20:26:31 10° NW 20:34:56 67° NE 20:46:28 10° ESE
Cosmos 2154 Rocket 4.4 20:37:20 10° N 20:43:24 50° ENE 20:49:23 10° SSE
COSMOS 2406 4.3 20:39:11 10° SSE 20:43:52 26° ESE 20:48:34 10° NE
Spot 2 Rocket 3.8 20:39:45 10° SE 20:44:43 56° ENE 20:49:44 10° N
Cosmos 1025 Rocket 4.1 20:41:27 10° SSW 20:45:36 49° WNW 20:49:49 10° N
SPOT 5 2.8 20:50:21 10° SSE 20:54:39 62° ENE 20:58:56 10° N
Cosmos 2084 Rocket 3.5 20:51:59 10° NW 20:55:50 66° NE 20:59:51 10° SE
Cosmos 1703 3.3 20:52:57 10° S 20:56:45 59° E 21:00:33 10° NNE
RESURS DK-1 2.7 20:52:45 10° NW 20:56:51 63° WSW 21:00:56 10° SSE
Cosmos 1452 Rocket 3.5 20:54:17 10° SSW 20:59:31 79° ESE 21:04:48 10° NNE
Cosmos 1833 Rocket 2.8 20:54:18 10° S 20:59:44 54° ESE 21:05:12 10° NE
Terra 2.2 20:56:45 10° SE 21:01:21 53° ENE 21:06:01 10° N
CZ-4B R/B 2.1 20:58:36 10° N 21:01:24 46° WNW 21:04:11 10° SSW
FALCON 9 DEB 3.6 21:02:01 10° WNW 21:05:15 57° NNE 21:08:29 10° E
Helios 1A Rocket 3.0 21:01:21 10° SSE 21:05:25 73° ENE 21:09:33 10° N
Cosmos 1110 Rocket 4.1 21:00:23 10° S 21:05:32 59° ESE 21:10:46 10° NNE
Cosmos 2322 Rocket 4.3 21:03:24 10° N 21:07:23 19° NE 21:11:22 10° E
ERS-1 Rocket 3.0 21:02:53 10° SSE 21:07:54 75° ENE 21:12:57 10° NNW
Resurs 01 Rocket 3.4 21:04:44 10° SSW 21:08:35 28° W 21:12:28 10° NW
Cosmos 2228 3.0 21:06:32 10° N 21:10:48 87° E 21:15:02 10° S
Cosmos 2058 Rocket 4.2 21:07:42 10° N 21:11:38 30° ENE 21:15:19 11° SE
Cosmos 2184 Rocket 4.2 21:08:30 10° NNW 21:14:42 78° W 21:20:54 10° S
Cosmos 1825 4.4 21:15:44 10° ESE 21:16:57 11° E 21:18:10 10° ENE
Lacrosse 5 4.1 21:14:08 10° W 21:17:03 15° WSW 21:19:58 10° SSW
Cosmos 1408 4.0 21:16:14 13° SE 21:18:23 21° E 21:21:03 10° NE
Cosmos 968 Rocket 3.7 21:16:49 10° NNW 21:21:59 62° ENE 21:26:36 13° SE
Cosmos 1328 4.0 21:22:06 10° S 21:26:01 55° E 21:29:56 10° NNE
USA 276 1.9 21:24:12 10° W 21:27:14 88° SSW 21:30:17 10° E
H-2A R/B 4.4 21:26:36 10° N 21:30:18 26° WNW 21:34:02 10° WSW
SJ 16-02 3.7 21:28:22 10° NNE 21:30:57 15° NE 21:33:32 10° E
Cosmos 1867 3.7 21:26:13 10° NW 21:31:44 78° NE 21:36:30 14° SE
Cosmos 2082 Rocket 2.6 21:28:13 10° S 21:33:34 43° ESE 21:38:57 10° NE
USA 267 4.1 21:31:24 10° ENE 21:36:53 28° SE 21:42:20 10° S
Cosmos 1606 Rocket 3.7 21:35:11 10° NNW 21:39:31 74° W 21:43:23 13° S
ARIANE 5 R/B 2.6 21:35:43 14° SSE 21:39:31 86° ENE 21:43:58 10° NNW
GP-B 3.8 21:36:20 10° NNE 21:40:30 39° E 21:43:35 17° SSE
Cosmos 2341 Rocket 4.2 21:35:30 10° N 21:41:49 64° ENE 21:47:01 15° SSE
Cosmos 2360 Rocket 4.2 21:39:12 10° NNW 21:43:32 22° NE 21:47:50 10° E
Meteor 1-21 Rocket 4.4 21:38:41 10° SSW 21:44:17 79° WNW 21:50:03 10° N
Cosmos 192 4.3 21:43:52 10° SSW 21:48:43 70° ESE 21:53:37 10° NNE
Okean 1-7 Rocket 4.3 21:58:40 19° SSE 22:01:19 38° E 22:05:30 10° NNE
SAR-Lupe-1 4.3 21:58:04 10° NNE 22:01:35 50° E 22:03:39 22° SSE
Cosmos 1726 Rocket 4.0 21:57:58 10° NNW 22:02:12 56° W 22:05:41 15° S
Cosmos 1892 2.7 22:02:06 20° S 22:04:31 62° E 22:08:16 10° NNE
Cosmos 2181 Rocket 4.1 22:07:21 17° S 22:12:06 62° E 22:18:15 10° NNE
USA 234 3.5 22:06:29 10° ESE 22:13:01 71° NNE 22:19:33 10° WNW
Cosmos 1633 4.0 22:12:09 18° ESE 22:13:16 21° E 22:15:58 10° NE
Cosmos 1697 Rocket 4.1 22:12:05 10° NW 22:16:48 28° WSW 22:21:16 11° SSW
Cosmos 1980 Rocket 2.7 22:11:21 10° NW 22:16:53 52° WSW 22:20:52 18° S
SL-16 R/B 2.7 22:11:24 10° NNW 22:16:59 54° NE 22:21:23 16° SE
Cosmos 1486 Rocket 4.0 22:12:18 10° NNW 22:17:34 80° ENE 22:21:05 21° SSE
Cosmos 1992 Rocket 4.2 22:15:19 19° S 22:18:56 52° ESE 22:24:02 10° NNE
X-37B 2.9 22:18:03 10° SW 22:18:13 10° SW 22:18:13 10° SW
Cosmos 1812 Rocket 4.4 22:15:18 10° N 22:19:33 41° ENE 22:22:08 21° SE
Cosmos 2369 4.4 22:15:01 10° NW 22:20:27 45° WSW 22:24:30 17° S
Cosmos 2219 Rocket 4.4 22:16:27 10° N 22:20:33 20° NE 22:24:39 10° E
Cosmos 1932 4.5 22:14:31 10° SSW 22:20:38 61° ESE 22:26:52 10° NE
TIMED 4.5 22:21:54 14° SSW 22:25:40 90° NNW 22:30:03 10° NNE
COSMOS 2406 3.7 22:22:04 10° SW 22:27:46 63° WNW 22:33:30 10° NNE
Cosmos-2242 3.8 22:24:53 10° N 22:28:54 39° ENE 22:31:12 22° SE
ATLAS 5 CENTAUR R/B 1.4 22:29:23 23° S 22:31:24 49° SE 22:35:28 10° NE
Cosmos 1869 3.2 22:29:13 10° N 22:33:08 87° W 22:35:09 28° S
Cosmos 807 4.3 22:30:23 10° N 22:33:28 57° ENE 22:34:25 36° SE
Cosmos 1602 Rocket 4.0 22:32:11 25° SSE 22:34:16 45° E 22:38:25 10° NNE
In-Cosmos 22 Rocket 4.1 22:30:23 18° S 22:34:38 87° E 22:40:05 10° NNE
ERS-2 4.3 22:35:21 10° ENE 22:36:59 13° E 22:37:40 12° ESE
Meteor 1-27 4.3 22:33:21 10° NNW 22:38:55 74° W 22:42:35 22° S
Terra 3.7 22:35:41 10° SW 22:39:25 23° W 22:43:11 10° NW
FALCON 9 DEB 3.3 22:38:20 10° WNW 22:41:30 48° SSW 22:42:17 38° SSE
ASTEX 1 3.9 22:36:58 10° N 22:41:55 60° W 22:45:50 16° SSW
ALOS 2 3.2 22:39:48 22° SE 22:42:18 48° ENE 22:46:33 10° N
Cosmos 1833 Rocket 4.4 22:38:53 10° WSW 22:43:56 33° NW 22:49:01 10° NNE
Cosmos 1354 Rocket 4.1 22:40:28 10° NNW 22:45:48 71° ENE 22:49:06 23° SE
BREEZE-M DEB (TANK) 3.5 22:44:46 10° W 22:47:49 78° S 22:58:54 10° ESE
SL-8 Rocket 4.5 22:42:26 10° NNW 22:48:29 54° W 22:53:01 18° SSW
Cosmos 2058 Rocket 4.4 22:45:40 10° NNW 22:49:37 33° W 22:52:35 16° SSW
ADEOS Rocket 3.7 22:45:43 20° SSE 22:51:08 69° ENE 22:58:52 10° NNW
Cosmos 1825 2.3 22:49:40 25° SSW 22:51:43 67° WNW 22:55:28 10° N
Cosmos 2322 Rocket 2.4 22:46:50 10° NNW 22:52:31 69° ENE 22:56:24 21° SE
Cosmos 1408 4.2 22:50:12 12° SW 22:52:55 28° WNW 22:55:58 10° N
Cosmos 1503 Rocket 4.0 22:50:15 10° NNW 22:55:36 83° WSW 22:58:35 26° SSE
Cosmos 1626 Rocket 3.6 22:54:43 23° SSW 22:57:20 72° W 23:01:42 10° N
USA 276 2.3 22:59:58 10° W 23:02:50 45° SSW 23:02:50 45° SSW
Cosmos 1777 Rocket 4.2 22:58:20 10° NNW 23:03:37 67° ENE 23:06:53 23° SE
Cosmos 2333 Rocket 3.2 23:02:11 10° NNW 23:07:39 42° NE 23:12:52 11° ESE
Cosmos 1825 Rocket 4.0 23:08:17 29° SSE 23:10:03 47° E 23:14:14 10° NNE
SJ 16-02 1.3 23:05:45 10° NNW 23:10:13 88° ENE 23:12:19 31° SSE
Gbstr 26 Del rocket 4.0 23:11:09 27° SE 23:11:21 27° SE 23:15:33 10° E
Cosmos 1340 Rocket 3.9 23:13:04 26° SE 23:14:18 32° E 23:17:51 10° NNE
Cosmos 2082 Rocket 3.5 23:12:23 10° WSW 23:17:44 40° NW 23:23:06 10° NNE
Meteor 2-20 4.4 23:13:53 24° S 23:17:47 90° E 23:23:55 10° N
H-2A R/B 3.4 23:14:50 10° NNE 23:19:04 77° ESE 23:20:55 32° S
USA 267 3.2 23:13:59 10° ENE 23:20:34 79° SE 23:27:07 10° SW
Cosmos 2221 3.4 23:21:54 10° N 23:26:02 40° ENE 23:28:18 23° SE
Cosmos 1606 2.7 23:23:00 10° NNW 23:26:52 72° W 23:28:16 37° S
Cosmos 2058 3.0 23:26:08 34° SSE 23:27:48 66° E 23:31:58 10° NNE
Cosmos 2360 Rocket 2.2 23:22:42 10° NNW 23:28:26 82° ENE 23:31:59 24° SSE
Cosmos 1934 Rocket 4.0 23:23:16 10° N 23:29:23 72° E 23:33:06 25° SSE
Meteor 2-2 Rocket 4.4 23:35:05 10° NNW 23:41:08 84° WSW 23:44:36 27° S
Cosmos 44 3.8 23:41:21 31° SSE 23:42:37 37° ESE 23:46:46 10° NE
Cosmos 2237 4.5 23:38:26 10° NW 23:44:02 55° WSW 23:46:53 28° S
Meteor 2-20 Rocket 4.5 23:42:26 25° SSW 23:46:14 79° W 23:52:22 10° N
Cosmos 1633 4.0 23:45:55 19° WSW 23:47:37 28° WNW 23:50:40 10° N
Cosmos 1758 Rocket 4.4 23:45:44 22° SW 23:48:10 44° WNW 23:52:24 10° N
Cosmos 2237 Rocket 4.3 23:48:01 10° NNW 23:52:35 24° NE 23:57:06 10° E
COSMOS 2428 3.6 23:48:55 10° NNW 23:54:27 47° NE 23:59:57 10° SE
